Tracking 35048 objects as of 19-Aug-2026
HD Live streaming from Space Station
objects crossing your sky now

SL-4 R/B


SL-4 R/B is no longer on orbit


NORAD ID: 3352
Int'l Code: 1968-072B
Launch date: August 28, 1968
Source: Commonwealth of Independent States (former USSR) (CIS)
Launch site: TYURATAM MISSILE AND SPACE COMPLEX (TTMTR)
Decay date: 1968-08-30

Note: This is a ROCKET BODY
Your satellite tracking list
Your tracking list is empty




NASA's NSSDC Master Catalog

Two Line Element Set (TLE):
1 03352U 68072  B 68242.26673726  .04083136 +00000-0 +00000-0 0  9992
2 03352 051.7170 132.4528 0034075 201.8970 158.0503 16.34289079000143
Source of the keplerian elements: AFSPC